{"data":{"norad_id":69654,"intl_designator":"2026-143F","name":"STARLINK-37838","alt_names":[],"object_type":"PAYLOAD","status":"ACTIVE","operator":null,"country":"US","launch_date":"2026-06-21","launch_site_code":"AFWTR","launch_vehicle":null,"mission":null,"orbit_class":"UNKNOWN","rcs_meters":null,"size_class":null,"mass_kg":null,"dimensions":null,"purposes":["comms"],"wikipedia_slug":null,"has_3d_model":false,"image_url":null,"decayed_at":null,"tle_current":{"epoch":"2026-09-19T23:11:07.323072Z","epoch_age_seconds":67816,"freshness":"FRESH","line1":"1 69654U 26143F   26262.96605698  .00001337  00000+0  43742-4 0  9990","line2":"2 69654  97.2846 306.2077 0000764  97.9110 262.2220 15.33440039 15135","mean_motion":15.33440039,"eccentricity":7.64e-5,"inclination_deg":97.2846,"raan_deg":306.2077,"arg_perigee_deg":97.911,"mean_anomaly_deg":262.222,"bstar":4.3742e-5,"rev_number":1513,"period_min":93.906508463094,"perigee_km":465.03507667053,"apogee_km":466.0807932566,"semimajor_km":6843.6949349636,"source":"CELESTRAK","updated_at":"2026-09-20T09:00:44.247720Z"}}}